This demonstration page uses our WeatherBlox Daily Observations layout. Learn more.

Left ArrowRight Arrow

Hourly Observations for October 9, 2021

Temp ( °F °C ) Dew Point ( °F °C ) Humidity (%) Winds ( mph kmh ) Pressure ( in mb ) Visibility ( mi km ) Precip ( " mm )
12:53 am 00:53 Clear 69 20.6 57 13.9 66 66 SSE 5 7 29.80 1009 10 16 N/A
1:53 am 01:53 Clear 66 18.9 57 13.9 73 73 SE 3 6 29.78 1009 10 16 N/A
2:53 am 02:53 Clear 67 19.4 58 14.4 73 73 SE 7 11 29.76 1008 10 16 N/A
3:53 am 03:53 Clear 65 18.3 58 14.4 78 78 SE 8 13 29.72 1007 10 16 N/A
4:53 am 04:53 Clear 65 18.3 58 14.4 78 78 SE 9 15 29.70 1006 10 16 N/A
5:53 am 05:53 Clear 64 17.8 58 14.4 81 81 SE 8 13 29.67 1005 10 16 N/A
6:53 am 06:53 Clear 64 17.8 58 14.4 81 81 SE 7 11 29.66 1005 10 16 N/A
7:53 am 07:53 Sunny 63 17.2 58 14.4 84 84 ESE 9 15 29.63 1003 10 16 N/A
8:53 am 08:53 Sunny 64 17.8 59 15 84 84 SSE 10 17 29.62 1003 10 16 N/A
9:53 am 09:53 Sunny 64 17.8 59 15 84 84 SSE 10 17 29.61 1003 10 16 N/A
10:53 am 10:53 Sunny 66 18.9 59 15 78 78 S 5 7 29.60 1002 10 16 N/A
11:53 am 11:53 Sunny 68 20 59 15 73 73 S 6 9 29.58 1002 10 16 N/A
12:53 pm 12:53 Sunny 70 21.1 58 14.4 66 66 S 7 11 29.57 1001 10 16 N/A
1:53 pm 13:53 Sunny 73 22.8 59 15 62 62 S 8 13 29.55 1001 10 16 N/A
2:53 pm 14:53 Sunny 74 23.3 58 14.4 57 57 SSW 8 13 29.52 1000 10 16 N/A
3:53 pm 15:53 Sunny 75 23.9 58 14.4 55 55 SW 7 11 29.52 1000 10 16 N/A
4:53 pm 16:53 Sunny 76 24.4 58 14.4 54 54 SW 7 11 29.54 1000 10 16 N/A
5:53 pm 17:53 Sunny 76 24.4 53 11.7 45 45 WSW 5 7 29.55 1001 10 16 N/A
6:53 pm 18:53 Sunny 73 22.8 54 12.2 51 51 SW 5 7 29.56 1001 10 16 N/A
7:53 pm 19:53 Clear 70 21.1 54 12.2 57 57 SSW 5 7 29.57 1002 10 16 N/A
8:53 pm 20:53 Clear 67 19.4 55 12.8 66 66 N N/A 29.60 1002 10 16 N/A
9:53 pm 21:53 Clear 62 16.7 54 12.2 75 75 WNW 6 9 29.60 1002 10 16 N/A
10:53 pm 22:53 Clear 63 17.2 55 12.8 76 76 WNW 8 13 29.61 1003 10 16 N/A
11:53 pm 23:53 Clear 61 16.1 55 12.8 81 81 W 6 9 29.65 1004 10 16 N/A

Powered by AerisWeather